Wind_Speed
45 48 54 45 32 29 29 34 32 29 26 23 25 20 13 22 33 27 23 22 19 19 15 14 11 10 9 11 12 14 19 27 24 19 22 19 22 20 21 16 13 9 14 14
48 49 52 50 43 35 30 38 38 37 33 32 31 30 34 27 25 26 27 26 26 26 20 15 19 18 14 14 17 19 19 20 24 21 20 19 19 27 23 19 17 14 13 15
54 54 53 52 48 45 40 41 40 31 33 27 29 33 32 33 30 24 26 27 27 25 25 22 14 15 12 15 16 17 21 23 25 25 27 31 28 26 26 25 24 18 15 16
42 46 50 50 51 51 50 45 41 40 35 28 33 35 39 38 32 33 28 22 23 17 19 12 11 14 21 20 23 17 15 18 26 31 32 33 33 30 27 28 12 20 20 20
32 33 30 31 34 31 31 26 29 28 30 33 32 33 37 33 29 25 20 19 18 19 12 16 26 18 15 19 20 20 21 24 25 31 36 35 32 35 31 24 28 35 29 20
16 22 22 22 25 25 26 24 23 21 22 26 24 27 26 24 18 18 18 20 20 16 14 26 18 15 16 19 19 21 23 26 30 34 36 38 35 32 34 34 33 35 27 12
24 21 24 23 24 24 25 26 26 23 23 23 25 23 25 24 17 16 17 15 20 15 10 20 4 5 9 11 15 18 21 22 22 29 40 41 41 39 37 38 34 34 28 24
24 23 23 25 24 27 28 30 31 31 27 24 26 24 26 26 21 23 16 19 16 9 7 9 5 5 9 11 14 18 22 21 24 24 29 35 39 41 41 41 37 37 28 26
25 25 26 26 25 26 29 32 31 31 24 27 28 29 28 30 22 29 22 12 12 15 13 16 12 14 10 13 19 26 25 30 28 27 26 32 34 34 37 40 37 33 33 32
29 27 25 25 27 28 29 28 27 27 25 25 26 28 24 26 28 35 23 13 13 12 13 16 18 25 31 22 21 28 36 34 29 29 25 27 35 36 36 35 36 35 38 40
29 27 24 26 30 28 27 28 26 29 25 20 23 23 21 23 27 27 32 23 19 17 14 17 25 39 36 40 51 45 42 44 31 30 32 35 34 33 35 37 37 38 40 40
28 28 27 26 25 23 24 25 27 27 23 19 17 24 23 29 30 24 23 27 18 12 21 25 40 42 50 47 50 52 53 47 32 34 37 36 34 34 34 34 39 44 45 45
29 27 25 24 24 26 22 22 24 23 21 18 18 24 29 33 34 34 20 25 25 26 31 34 44 48 54 52 50 56 58 51 37 30 35 33 31 33 34 33 32 37 44 46
30 28 26 23 25 24 23 22 23 24 20 19 21 25 29 35 33 38 32 27 39 35 38 39 49 61 47 45 57 59 59 45 30 27 30 30 29 29 31 30 29 30 33 39
30 29 25 27 27 25 26 29 26 24 18 17 19 20 23 26 30 36 44 37 44 49 49 56 55 51 50 51 47 36 35 24 22 23 24 28 29 28 28 28 29 30 30 33
28 29 29 31 30 30 26 28 28 26 19 18 19 21 23 23 33 34 34 42 42 46 51 43 47 50 42 40 40 23 18 14 14 17 18 21 23 27 27 29 31 32 33 32
33 31 33 34 33 29 27 30 28 26 23 21 20 21 22 24 35 39 36 37 42 35 34 36 32 30 33 20 13 13 14 9 13 15 14 14 16 18 19 21 25 26 25 28
33 36 34 34 33 30 31 33 28 29 26 25 22 22 25 23 29 34 33 36 36 32 38 35 28 28 25 21 17 17 14 12 20 17 13 12 11 13 17 17 22 26 27 27
33 36 34 36 33 31 34 34 29 31 31 28 25 23 22 23 29 33 26 28 32 33 28 26 29 26 21 18 16 19 19 18 22 15 15 15 17 19 21 21 21 20 23 28
37 37 37 41 33 32 37 35 34 34 30 31 28 23 23 27 30 35 31 29 28 26 27 27 28 23 22 25 24 20 15 15 15 15 14 14 16 19 22 25 28 28 25 25
42 40 39 39 38 36 38 43 38 34 34 33 34 26 28 28 31 35 34 29 31 30 28 28 27 25 25 25 22 20 20 21 22 21 22 20 20 20 20 21 24 27 30 30
42 42 42 42 41 40 45 48 45 39 37 30 33 29 30 33 35 35 37 36 35 32 34 32 30 30 27 27 27 26 26 24 23 24 26 25 23 23 24 25 26 26 29 33
46 44 44 41 36 37 41 49 45 47 42 40 38 35 32 34 36 39 36 34 34 33 34 33 31 30 28 28 32 34 31 30 29 29 29 31 31 33 32 30 30 30 31 31
52 51 47 44 40 38 39 41 39 40 39 33 36 37 34 34 36 38 36 34 35 34 31 29 29 29 29 29 29 29 30 31 32 32 34 36 36 35 34 33 32 32 35 36
65 60 54 50 44 40 42 40 38 38 36 31 37 31 27 30 31 36 38 34 35 35 32 31 29 29 27 25 25 27 30 33 36 38 40 41 41 39 38 37 36 35 35 35
74 73 62 55 52 46 42 45 44 38 37 20 31 22 22 31 31 32 39 40 35 32 33 32 31 30 28 26 27 29 31 32 34 34 35 37 38 38 37 36 35 34 34 32
Wind_Direction
196 197 210 207 206 217 221 230 231 260 248 243 237 251 225 256 253 260 267 271 261 265 268 272 275 285 245 258 257 251 203 216 221 229 223 242 225 227 233 236 258 272 295 313
206 208 213 213 220 238 253 243 241 254 252 237 242 237 254 272 264 270 273 273 271 274 257 267 274 282 267 229 241 233 233 232 229 233 247 227 242 228 236 247 262 286 291 298
215 214 222 229 231 237 240 247 243 233 248 250 252 254 257 258 269 264 271 272 273 277 276 255 267 234 241 227 232 228 236 239 238 241 247 250 255 233 246 252 262 270 285 294
216 223 231 236 237 241 246 250 249 246 259 258 250 248 251 254 258 261 273 276 275 272 290 266 280 261 236 226 228 227 233 241 250 247 247 252 254 254 252 255 258 266 275 276
218 226 231 234 239 246 251 246 248 246 251 250 249 249 247 250 255 259 254 277 270 286 259 292 301 278 232 232 245 264 258 257 260 246 246 249 252 251 259 258 264 276 277 289
231 237 238 240 241 243 245 249 249 245 233 245 245 245 252 250 246 252 263 254 246 250 282 304 286 265 274 262 262 267 268 268 257 252 246 246 248 250 253 254 258 265 271 262
208 217 228 233 237 242 245 246 246 242 242 241 255 250 252 260 260 254 258 257 254 237 273 298 322 340 310 281 286 286 276 273 267 257 247 246 249 253 255 255 259 265 252 250
230 225 231 232 238 243 245 242 244 247 248 252 253 252 258 253 244 236 247 250 238 250 254 220 198 244 288 324 358 349 341 302 280 262 254 249 249 253 254 254 259 258 243 227
226 230 234 239 243 248 252 253 253 254 250 246 244 245 242 246 231 227 233 245 256 242 234 227 257 277 243 264 291 314 331 332 297 274 269 256 252 251 251 251 248 245 235 217
228 232 233 237 242 245 251 252 256 256 249 249 249 245 242 253 227 219 220 207 242 230 256 249 226 273 288 302 319 324 330 331 305 280 265 263 262 256 257 249 246 245 247 240
236 243 243 248 249 250 255 258 255 258 258 252 254 249 246 236 225 215 229 229 204 265 224 247 267 278 302 295 288 312 312 317 302 267 255 252 255 254 254 251 246 247 247 251
244 242 241 241 248 252 254 258 259 256 254 244 221 233 229 227 224 208 219 217 216 260 243 260 269 275 291 310 316 310 309 318 302 260 248 251 252 254 255 257 250 243 247 248
240 246 245 251 256 254 252 257 258 254 249 240 220 211 216 217 222 220 213 220 242 233 249 258 280 289 292 291 312 311 308 308 301 265 247 249 250 254 254 259 257 248 248 249
249 244 245 246 251 255 261 253 255 250 248 236 224 215 219 218 229 231 242 243 231 233 240 250 267 271 296 303 299 297 291 297 291 268 249 247 249 252 255 255 256 258 254 254
254 252 250 249 250 254 257 257 254 251 247 234 229 226 215 226 241 242 244 250 236 242 250 254 263 277 287 286 310 311 303 288 277 263 250 244 248 251 252 250 250 251 251 254
246 254 251 253 253 251 255 264 261 258 253 245 220 227 207 223 237 241 250 251 254 257 258 277 274 278 296 303 315 309 315 315 299 283 268 255 254 253 252 253 255 257 258 262
246 246 250 253 251 254 251 252 257 260 257 245 236 219 218 228 234 233 229 245 251 266 272 277 288 306 308 319 316 309 306 333 329 324 298 269 261 259 256 255 253 251 253 249
253 255 251 253 258 257 253 253 254 257 257 258 240 225 211 234 255 250 245 249 248 259 265 280 293 298 290 290 302 319 289 295 317 303 297 284 267 272 274 278 268 259 257 252
250 257 258 257 254 254 257 258 259 254 252 252 245 228 228 238 252 259 255 252 267 271 279 280 283 281 283 280 282 293 288 281 296 300 267 268 268 270 269 271 272 275 261 252
256 253 250 257 257 258 257 257 253 254 254 256 255 249 238 233 245 253 251 258 260 265 273 277 277 271 262 271 280 281 284 282 277 276 276 277 274 276 277 276 271 270 266 267
262 260 256 252 256 257 260 265 260 255 256 250 260 257 250 242 246 251 249 249 253 262 264 257 262 260 256 268 275 273 280 281 271 261 269 271 275 276 277 276 274 268 265 263
252 251 252 251 253 250 251 254 261 262 256 256 259 258 251 250 249 251 253 248 247 247 251 254 254 257 258 263 267 269 269 272 272 266 265 270 273 281 286 282 274 273 269 264
258 256 250 254 254 246 246 252 255 257 258 257 255 253 248 253 254 253 251 253 253 254 252 257 260 260 258 261 262 265 266 262 264 266 267 269 271 274 278 278 277 276 275 272
255 254 255 255 254 252 249 255 254 255 257 255 251 253 249 249 255 256 255 254 256 255 257 255 258 259 260 259 263 271 272 270 272 273 273 274 273 272 272 268 270 275 272 272
257 252 250 254 254 251 247 250 253 253 258 246 241 240 256 258 253 258 260 252 250 253 256 258 255 258 261 263 265 269 277 281 282 283 280 276 273 272 269 267 264 263 268 272
251 253 251 249 251 251 246 244 249 250 250 235 212 222 246 260 257 252 257 257 248 249 255 260 263 265 267 269 271 275 277 283 286 284 280 277 275 273 269 266 268 267 270 275
Height
10949 10950 10948 10955 10958 10962 10966 10970 10975 10971 10976 10979 10980 10977 10977 10979 10979 10979 10980 10980 10981 10981 10981 10982 10983 10983 10984 10983 10983 10985 10986 10988 10992 10997 10999 11001 11003 11004 11003 11006 11008 11007 11005 11004
10949 10950 10951 10955 10958 10961 10962 10962 10968 10967 10968 10973 10973 10973 10972 10973 10973 10974 10975 10975 10976 10977 10978 10977 10977 10979 10980 10980 10980 10981 10984 10986 10988 10993 10996 10997 10998 11000 11000 11001 11002 11003 11003 11003
10942 10946 10948 10952 10957 10955 10953 10954 10962 10965 10961 10968 10970 10967 10968 10967 10967 10969 10969 10970 10971 10972 10973 10971 10971 10973 10975 10976 10977 10977 10979 10982 10984 10987 10989 10990 10993 10995 10996 10997 10997 11000 11001 11001
10943 10945 10946 10949 10949 10948 10948 10952 10953 10959 10957 10961 10961 10959 10957 10959 10962 10965 10967 10966 10966 10966 10965 10966 10966 10967 10968 10970 10973 10975 10976 10977 10978 10980 10982 10983 10986 10989 10990 10993 10995 10996 10994 10991
10932 10933 10939 10941 10941 10944 10941 10946 10947 10952 10952 10949 10950 10950 10949 10953 10959 10962 10961 10960 10958 10959 10960 10960 10959 10960 10961 10965 10967 10970 10972 10973 10973 10973 10975 10977 10980 10982 10984 10989 10990 10989 10989 10989
10934 10934 10932 10934 10934 10936 10936 10938 10940 10943 10944 10940 10942 10943 10945 10948 10951 10952 10951 10948 10950 10951 10953 10954 10953 10955 10957 10960 10963 10964 10965 10966 10968 10968 10969 10971 10973 10976 10978 10982 10982 10982 10984 10986
10927 10931 10933 10934 10935 10934 10935 10934 10934 10934 10936 10938 10937 10938 10938 10940 10946 10945 10944 10944 10946 10946 10947 10948 10948 10949 10953 10957 10959 10959 10960 10960 10961 10962 10962 10963 10964 10965 10969 10973 10974 10976 10979 10982
10925 10926 10927 10929 10931 10931 10931 10928 10928 10928 10932 10934 10933 10935 10935 10935 10940 10939 10939 10940 10940 10940 10940 10941 10946 10944 10947 10950 10950 10952 10954 10954 10955 10954 10955 10956 10957 10958 10960 10963 10967 10968 10974 10975
10918 10920 10921 10922 10924 10925 10924 10924 10924 10925 10928 10926 10926 10928 10930 10931 10935 10931 10937 10938 10937 10935 10932 10937 10940 10944 10943 10943 10946 10947 10948 10948 10948 10949 10949 10950 10950 10950 10951 10953 10958 10962 10965 10969
10910 10912 10917 10918 10918 10918 10917 10918 10918 10917 10920 10921 10921 10921 10928 10931 10928 10926 10934 10932 10930 10928 10930 10931 10935 10936 10935 10937 10937 10942 10943 10943 10943 10943 10944 10943 10941 10943 10945 10947 10949 10954 10956 10961
10906 10910 10912 10912 10910 10913 10914 10913 10912 10910 10914 10920 10919 10921 10924 10924 10921 10924 10926 10928 10924 10921 10926 10926 10926 10929 10927 10925 10926 10930 10937 10936 10937 10934 10933 10933 10932 10933 10937 10939 10942 10945 10948 10947
10902 10904 10907 10907 10907 10908 10908 10907 10908 10905 10908 10913 10918 10919 10920 10914 10917 10922 10921 10924 10922 10920 10923 10927 10923 10918 10915 10915 10914 10916 10921 10922 10923 10924 10922 10922 10922 10924 10926 10929 10932 10935 10938 10941
10897 10899 10902 10902 10902 10900 10901 10901 10901 10901 10904 10908 10911 10913 10912 10912 10910 10915 10918 10920 10922 10921 10921 10920 10918 10912 10910 10910 10909 10909 10908 10908 10909 10908 10911 10912 10913 10915 10917 10918 10920 10925 10928 10932
10890 10892 10896 10897 10895 10895 10897 10895 10894 10896 10900 10904 10906 10907 10911 10911 10907 10906 10911 10914 10917 10919 10918 10919 10916 10909 10908 10907 10906 10908 10904 10899 10897 10900 10902 10904 10906 10908 10909 10910 10912 10915 10919 10920
10882 10885 10889 10890 10890 10890 10889 10888 10889 10891 10895 10900 10901 10903 10909 10909 10901 10899 10900 10903 10907 10909 10908 10908 10911 10907 10903 10907 10905 10898 10895 10892 10892 10893 10893 10895 10898 10900 10902 10903 10904 10907 10910 10911
10874 10876 10879 10881 10883 10884 10886 10884 10884 10885 10889 10893 10895 10896 10902 10902 10898 10899 10897 10897 10900 10901 10897 10899 10900 10900 10901 10900 10897 10892 10892 10888 10886 10885 10885 10889 10891 10892 10893 10895 10896 10897 10901 10903
10862 10866 10870 10871 10873 10877 10879 10876 10878 10878 10882 10887 10890 10894 10897 10895 10890 10894 10898 10898 10897 10892 10893 10895 10892 10891 10894 10892 10893 10891 10890 10887 10886 10883 10883 10883 10884 10885 10887 10888 10890 10892 10892 10893
10854 10856 10860 10861 10863 10868 10868 10869 10873 10874 10876 10879 10883 10887 10891 10889 10880 10885 10890 10889 10891 10890 10892 10889 10886 10887 10890 10888 10887 10886 10884 10884 10884 10883 10883 10882 10883 10883 10884 10884 10884 10885 10886 10887
10847 10847 10851 10851 10853 10858 10858 10859 10864 10864 10865 10871 10875 10879 10883 10882 10875 10876 10883 10883 10881 10881 10881 10879 10881 10886 10885 10885 10883 10882 10881 10881 10881 10881 10882 10882 10881 10881 10882 10881 10881 10880 10879 10880
10834 10836 10839 10840 10844 10847 10846 10849 10853 10856 10860 10861 10866 10871 10876 10875 10872 10870 10875 10874 10874 10875 10876 10874 10876 10879 10881 10881 10880 10877 10876 10877 10877 10878 10879 10879 10878 10877 10876 10875 10874 10874 10875 10875
10822 10824 10829 10831 10835 10841 10840 10835 10841 10847 10849 10854 10857 10863 10865 10866 10864 10861 10867 10869 10870 10871 10871 10873 10874 10875 10875 10875 10874 10873 10872 10872 10873 10874 10874 10874 10874 10873 10872 10870 10869 10868 10868 10868
10811 10813 10816 10820 10825 10831 10828 10825 10829 10835 10839 10846 10850 10854 10856 10856 10853 10851 10855 10860 10862 10866 10870 10868 10870 10870 10868 10868 10868 10868 10869 10868 10869 10868 10868 10868 10867 10866 10866 10865 10863 10862 10861 10861
10797 10802 10805 10808 10814 10818 10818 10815 10820 10824 10829 10834 10839 10843 10847 10847 10846 10844 10847 10849 10852 10855 10859 10860 10861 10860 10861 10862 10862 10862 10863 10864 10863 10862 10862 10861 10860 10859 10858 10858 10856 10855 10855 10853
10784 10785 10791 10795 10803 10807 10809 10808 10810 10814 10817 10824 10825 10828 10836 10836 10835 10834 10836 10839 10840 10843 10847 10851 10853 10854 10856 10857 10857 10856 10855 10855 10854 10854 10853 10852 10851 10851 10850 10849 10848 10847 10846 10843
10758 10765 10776 10782 10788 10794 10797 10799 10800 10804 10808 10813 10814 10817 10820 10824 10825 10825 10826 10829 10831 10834 10839 10843 10846 10847 10849 10850 10850 10849 10848 10846 10845 10844 10842 10841 10840 10840 10838 10838 10838 10837 10836 10833
10735 10739 10755 10767 10772 10779 10785 10788 10788 10793 10796 10800 10806 10810 10812 10816 10817 10819 10820 10820 10823 10828 10830 10833 10837 10839 10841 10843 10843 10842 10841 10839 10836 10834 10831 10828 10827 10826 10826 10827 10827 10826 10824 10823